Alexander City, AL

3:55 AM CST on February 06, 2016 (GMT -0600)
Russell

Weather History for KALX - February, 2013

Change the Weather History Date:

Monday, February 18, 2013

  Actual Average (KAUO) Record (KAUO)
Temperature  
Mean Temperature 46 °F -  
Max Temperature 62 °F - 77 °F (1967)
Min Temperature 29 °F - 9 °F (1958)
Degree Days  
Heating Degree Days 20    
Month to date heating degree days  
Since 1 July heating degree days  
Moisture  
Dew Point 27 °F    
Average Humidity 49    
Maximum Humidity 84    
Minimum Humidity 22    
Precipitation  
Precipitation 0.00 in - 1.79 in (1961)
Month to date precipitation  
Year to date precipitation  
Sea Level Pressure  
Sea Level Pressure 30.23 in    
Wind  
Wind Speed 3 mph (SSE)    
Max Wind Speed 14 mph    
Max Gust Speed 20 mph    
Visibility 10 miles    
Events Rain    
T = Trace of Precipitation, MM = Missing Value Source: NWS Daily Summary

Daily Weather History Graph

Daily Weather History Graph

Search for Another Location

Airport or City:

Trip Planner

Search our weather history database for the weather conditions in past years. The results will help you decide how hot, cold, wet, or windy it might be!

Date:

Astronomy

Feb. 18, 2013 Rise Set
Actual Time 6:23 AM CST 5:32 PM CST
Civil Twilight 5:58 AM CST 5:57 PM CST
Nautical Twilight 5:29 AM CST 6:26 PM CST
Astronomical Twilight 5:01 AM CST 6:54 PM CST
Moon 11:26 AM CST (2/18) 12:54 AM CST (2/18)
Length of Visible Light 11h 58m
Length of Day
11h 08m
First Quarter, 58% of the Moon is Illuminated
Feb 18
First Quarter
Feb 25
Full
Mar 4
Last Quarter
Mar 11
New
Mar 19
First Quarter

Hourly Weather History & Observations

Time (CST) Temp. Windchill Dew Point Humidity Pressure Visibility Wind Dir Wind Speed Gust Speed Precip Events Conditions
12:15 AM 32.7 °F - 27.0 °F 79% 30.28 in 10.0 mi Calm Calm - N/A   Clear
12:35 AM 31.1 °F - 24.8 °F 77% 30.28 in 10.0 mi Calm Calm - N/A   Clear
12:55 AM 32.0 °F - 25.0 °F 75% 30.28 in 10.0 mi Calm Calm - N/A   Clear
1:15 AM 29.8 °F - 23.5 °F 77% 30.29 in 10.0 mi Calm Calm - N/A   Clear
1:35 AM 32.0 °F - 26.8 °F 81% 30.28 in 10.0 mi Calm Calm - N/A   Clear
1:55 AM 29.7 °F - 24.1 °F 80% 30.28 in 10.0 mi Calm Calm - N/A   Clear
2:15 AM 29.7 °F - 24.4 °F 81% 30.28 in 10.0 mi Calm Calm - N/A   Clear
2:35 AM 30.0 °F - 24.4 °F 80% 30.28 in 10.0 mi Calm Calm - N/A   Clear
2:55 AM 29.7 °F - 24.8 °F 82% 30.28 in 10.0 mi Calm Calm - N/A   Clear
3:15 AM 29.7 °F - 24.8 °F 82% 30.28 in 10.0 mi Calm Calm - N/A   Clear
3:35 AM 29.7 °F - 24.8 °F 82% 30.28 in 10.0 mi Calm Calm - N/A   Clear
3:55 AM 29.8 °F - 25.0 °F 82% 30.27 in 10.0 mi Calm Calm - N/A   Clear
4:15 AM 32.0 °F - 27.1 °F 82% 30.28 in 10.0 mi Calm Calm - N/A   Clear
4:35 AM 30.7 °F - 26.1 °F 83% 30.28 in 10.0 mi Calm Calm - N/A   Clear
4:55 AM 29.7 °F - 25.2 °F 83% 30.29 in 10.0 mi Calm Calm - N/A   Clear
5:15 AM 32.0 °F - 27.7 °F 84% 30.29 in 10.0 mi Calm Calm - N/A   Clear
5:35 AM 31.1 °F - 26.4 °F 83% 30.29 in 10.0 mi Calm Calm - N/A   Clear
5:55 AM 31.1 °F - 25.9 °F 81% 30.29 in 10.0 mi Calm Calm - N/A   Clear
6:15 AM 32.0 °F - 26.6 °F 80% 30.30 in 10.0 mi Calm Calm - N/A   Clear
6:35 AM 29.7 °F - 24.8 °F 82% 30.30 in 10.0 mi Calm Calm - N/A   Clear
6:55 AM 29.7 °F - 25.3 °F 84% 30.31 in 10.0 mi Calm Calm - N/A   Clear
7:15 AM 34.7 °F - 29.1 °F 80% 30.32 in 10.0 mi Calm Calm - N/A   Clear
7:35 AM 34.7 °F - 29.3 °F 81% 30.33 in 10.0 mi Calm Calm - N/A   Clear
7:55 AM 37.0 °F - 30.6 °F 77% 30.33 in 10.0 mi Calm Calm - N/A   Clear
8:15 AM 41.0 °F - 29.8 °F 64% 30.33 in 10.0 mi Calm Calm - N/A   Clear
8:35 AM 43.3 °F 41.7 °F 29.8 °F 59% 30.33 in 10.0 mi SSE 3.5 mph - N/A   Clear
8:55 AM 47.1 °F - 31.5 °F 55% 30.34 in 10.0 mi SSE 4.6 mph - N/A   Clear
9:15 AM 49.6 °F - 30.6 °F 48% 30.34 in 10.0 mi SE 6.9 mph - N/A   Clear
9:35 AM 49.8 °F - 28.4 °F 44% 30.34 in 10.0 mi South 4.6 mph - N/A   Clear
9:55 AM 54.7 °F - 29.8 °F 39% 30.33 in 10.0 mi ESE 9.2 mph - N/A   Clear
10:15 AM 54.7 °F - 27.1 °F 35% 30.33 in 10.0 mi SSW 11.5 mph 18.4 mph N/A   Clear
10:35 AM 55.0 °F - 27.0 °F 34% 30.33 in 10.0 mi South 6.9 mph - N/A   Clear
10:55 AM 57.2 °F - 28.6 °F 34% 30.32 in 10.0 mi SSW 12.7 mph - N/A   Clear
11:15 AM 57.2 °F - 28.2 °F 33% 30.31 in 10.0 mi South 9.2 mph - N/A   Clear
11:35 AM 57.2 °F - 26.6 °F 31% 30.30 in 10.0 mi SSE 10.4 mph - N/A   Clear
11:55 AM 59.5 °F - 27.1 °F 29% 30.29 in 10.0 mi SSW 12.7 mph 16.1 mph N/A   Clear
12:15 PM 59.9 °F - 24.8 °F 26% 30.27 in 10.0 mi SSE 5.8 mph - N/A   Clear
12:35 PM 59.9 °F - 23.9 °F 25% 30.26 in 10.0 mi SE 12.7 mph 16.1 mph N/A   Clear
12:55 PM 60.1 °F - 24.3 °F 25% 30.24 in 10.0 mi South 6.9 mph - N/A   Clear
1:15 PM 59.9 °F - 24.1 °F 25% 30.23 in 10.0 mi SE 12.7 mph 17.3 mph N/A   Clear
1:35 PM 61.0 °F - 24.3 °F 25% 30.22 in 10.0 mi SE 10.4 mph 18.4 mph N/A   Clear
1:55 PM 62.2 °F - 23.9 °F 23% 30.22 in 10.0 mi SSE 8.1 mph 18.4 mph N/A   Clear
2:15 PM 62.2 °F - 23.5 °F 23% 30.21 in 10.0 mi SSE 5.8 mph 17.3 mph N/A   Clear
2:35 PM 62.1 °F - 23.0 °F 22% 30.20 in 10.0 mi SSE 10.4 mph 19.6 mph N/A   Clear
2:55 PM 62.6 °F - 22.5 °F 22% 30.19 in 10.0 mi SSE 5.8 mph - N/A   Clear
3:15 PM 62.2 °F - 22.6 °F 22% 30.18 in 10.0 mi South 13.8 mph 19.6 mph N/A   Clear
3:35 PM 62.2 °F - 23.7 °F 23% 30.17 in 10.0 mi SE 10.4 mph 17.3 mph N/A   Clear
3:55 PM 62.2 °F - 23.0 °F 22% 30.17 in 10.0 mi SSE 8.1 mph - N/A   Clear
4:15 PM 61.0 °F - 23.2 °F 24% 30.16 in 10.0 mi SSE 10.4 mph 19.6 mph N/A   Clear
4:35 PM 61.0 °F - 23.4 °F 24% 30.16 in 10.0 mi South 9.2 mph - N/A   Clear
4:55 PM 61.0 °F - 25.3 °F 26% 30.16 in 10.0 mi South 8.1 mph - N/A   Clear
5:15 PM 59.9 °F - 25.5 °F 27% 30.15 in 10.0 mi South 8.1 mph - N/A   Clear
5:35 PM 59.9 °F - 27.3 °F 29% 30.15 in 10.0 mi SSE 6.9 mph - N/A   Clear
5:55 PM 57.2 °F - 26.2 °F 31% 30.13 in 10.0 mi SSE 6.9 mph - N/A   Clear
6:15 PM 57.2 °F - 27.0 °F 31% 30.12 in 10.0 mi SE 9.2 mph 17.3 mph N/A   Clear
6:35 PM 57.2 °F - 28.0 °F 33% 30.13 in 10.0 mi SE 8.1 mph - N/A   Clear
6:55 PM 57.2 °F - 28.4 °F 33% 30.13 in 10.0 mi SSE 8.1 mph 16.1 mph N/A   Clear
7:15 PM 57.2 °F - 29.7 °F 35% 30.14 in 10.0 mi SE 10.4 mph - N/A   Clear
7:35 PM 55.2 °F - 28.6 °F 36% 30.15 in 10.0 mi SSE 8.1 mph - N/A   Scattered Clouds
7:55 PM 54.7 °F - 28.2 °F 36% 30.12 in 10.0 mi SE 8.1 mph 18.4 mph N/A   Mostly Cloudy
8:15 PM 54.7 °F - 27.1 °F 35% 30.13 in 10.0 mi SSE 10.4 mph - N/A   Scattered Clouds
8:35 PM 54.7 °F - 26.4 °F 34% 30.14 in 10.0 mi South 6.9 mph - N/A   Scattered Clouds
8:55 PM 54.7 °F - 25.3 °F 32% 30.13 in 10.0 mi SE 9.2 mph - N/A   Scattered Clouds
9:15 PM 54.7 °F - 24.1 °F 31% 30.14 in 10.0 mi SSE 6.9 mph 16.1 mph N/A   Scattered Clouds
9:35 PM 54.7 °F - 24.4 °F 31% 30.13 in 10.0 mi SSE 6.9 mph 16.1 mph N/A   Scattered Clouds
9:55 PM 54.7 °F - 26.1 °F 33% 30.11 in 10.0 mi SE 6.9 mph - N/A   Mostly Cloudy
10:15 PM 54.7 °F - 28.9 °F 37% 30.09 in 10.0 mi SSE 4.6 mph - N/A Rain Light Rain
10:35 PM 54.7 °F - 29.3 °F 38% 30.09 in 10.0 mi South 6.9 mph - N/A   Scattered Clouds
10:55 PM 54.7 °F - 31.1 °F 41% 30.07 in 10.0 mi SSE 9.2 mph - N/A   Mostly Cloudy
11:15 PM 54.7 °F - 32.0 °F 42% 30.07 in 10.0 mi SSE 6.9 mph - N/A   Scattered Clouds
11:35 PM 54.7 °F - 32.0 °F 42% 30.07 in 10.0 mi SSE 8.1 mph - N/A   Mostly Cloudy
11:55 PM 54.7 °F - 32.0 °F 42% 30.06 in 10.0 mi SSE 6.9 mph - N/A   Overcast